Time,TemperatureF,DewpointF,PressureIn,WindDirection,WindDirectionDegrees,WindSpeedMPH,WindSpeedGustMPH,Humidity,HourlyPrecipIn,Conditions,Clouds,dailyrainin,SoftwareType,DateUTC
2013-03-21 00:00:00,32.4,23.7,29.82,West,269,0.0,0.0,70,0.00,,OVC080,0.00,VWS V14.01,2013-03-21 04:00:00,
2013-03-21 00:05:00,32.3,24.3,29.82,West,269,0.0,0.0,72,0.00,,OVC075,0.00,VWS V14.01,2013-03-21 04:05:00,
2013-03-21 00:10:00,32.2,23.9,29.82,West,269,0.0,0.0,71,0.00,,OVC075,0.00,VWS V14.01,2013-03-21 04:10:00,
2013-03-21 00:15:00,32.3,24.0,29.82,West,269,0.0,0.0,71,0.00,,OVC075,0.00,VWS V14.01,2013-03-21 04:15:00,
2013-03-21 00:20:00,32.2,24.9,29.82,West,269,0.0,0.0,74,0.00,,OVC075,0.00,VWS V14.01,2013-03-21 04:20:00,
2013-03-21 00:25:00,32.0,24.0,29.83,West,269,0.0,0.0,72,0.00,,OVC075,0.00,VWS V14.01,2013-03-21 04:25:00,
2013-03-21 00:30:00,32.2,23.2,29.82,SSW,206,0.0,1.4,69,0.00,,OVC075,0.00,VWS V14.01,2013-03-21 04:30:00,
2013-03-21 00:35:00,32.2,23.9,29.83,SW,220,0.0,2.8,71,0.00,,OVC075,0.00,VWS V14.01,2013-03-21 04:35:00,
2013-03-21 00:40:00,32.6,23.6,29.83,SSW,201,0.0,1.4,69,0.00,,OVC075,0.00,VWS V14.01,2013-03-21 04:40:00,
2013-03-21 00:45:00,33.1,24.0,29.83,WNW,285,1.4,7.1,69,0.00,,OVC075,0.00,VWS V14.01,2013-03-21 04:45:00,
2013-03-21 00:50:00,33.4,24.0,29.83,WSW,253,0.0,7.1,68,0.00,,OVC075,0.00,VWS V14.01,2013-03-21 04:50:00,
2013-03-21 00:55:00,33.6,24.2,29.83,SSW,193,0.0,7.1,68,0.00,,OVC075,0.00,VWS V14.01,2013-03-21 04:55:00,
2013-03-21 01:00:00,33.8,24.4,29.83,South,180,0.0,4.3,68,0.00,,OVC075,0.00,VWS V14.01,2013-03-21 05:00:00,
2013-03-21 01:05:00,33.7,24.3,29.83,SW,223,4.3,4.3,68,0.00,,OVC075,0.00,VWS V14.01,2013-03-21 05:05:00,
2013-03-21 01:10:00,33.7,24.3,29.82,SW,225,0.0,0.0,68,0.00,,BKN046,0.00,VWS V14.01,2013-03-21 05:10:00,
2013-03-21 01:15:00,33.6,24.2,29.82,WSW,251,0.0,0.0,68,0.00,,BKN046,0.00,VWS V14.01,2013-03-21 05:15:00,
2013-03-21 01:20:00,33.6,24.2,29.82,WSW,255,0.0,0.0,68,0.00,,BKN046,0.00,VWS V14.01,2013-03-21 05:20:00,
2013-03-21 01:25:00,33.5,24.1,29.83,WSW,258,0.0,2.8,68,0.00,,BKN046,0.00,VWS V14.01,2013-03-21 05:25:00,
2013-03-21 01:30:00,33.4,24.0,29.83,WSW,258,0.0,1.4,68,0.00,,BKN046,0.00,VWS V14.01,2013-03-21 05:30:00,
2013-03-21 01:35:00,33.3,24.6,29.83,WSW,258,0.0,0.0,70,0.00,,BKN046,0.00,VWS V14.01,2013-03-21 05:35:00,
2013-03-21 01:40:00,33.3,24.6,29.82,WSW,258,0.0,0.0,70,0.00,,BKN046,0.00,VWS V14.01,2013-03-21 05:40:00,
2013-03-21 01:45:00,33.3,23.9,29.82,West,280,0.0,2.8,68,0.00,,BKN046,0.00,VWS V14.01,2013-03-21 05:45:00,
2013-03-21 01:50:00,33.3,24.2,29.82,West,279,0.0,0.0,69,0.00,,BKN046,0.00,VWS V14.01,2013-03-21 05:50:00,
2013-03-21 01:55:00,33.3,23.9,29.82,WSW,240,0.0,1.4,68,0.00,,BKN046,0.00,VWS V14.01,2013-03-21 05:55:00,
2013-03-21 02:00:00,33.5,24.1,29.81,WSW,239,0.0,0.0,68,0.00,,BKN046,0.00,VWS V14.01,2013-03-21 06:00:00,
2013-03-21 02:05:00,33.5,24.1,29.81,WSW,253,0.0,5.7,68,0.00,,SCT036,0.00,VWS V14.01,2013-03-21 06:05:00,
2013-03-21 02:10:00,33.6,23.8,29.81,SW,226,0.0,0.0,67,0.00,,SCT036,0.00,VWS V14.01,2013-03-21 06:10:00,
2013-03-21 02:15:00,33.4,24.0,29.81,SW,232,0.0,1.4,68,0.00,,SCT036,0.00,VWS V14.01,2013-03-21 06:15:00,
2013-03-21 02:20:00,33.3,23.9,29.80,WNW,284,0.0,0.0,68,0.00,,SCT036,0.00,VWS V14.01,2013-03-21 06:20:00,
2013-03-21 02:25:00,33.2,24.1,29.80,WNW,288,0.0,0.0,69,0.00,,SCT036,0.00,VWS V14.01,2013-03-21 06:25:00,
2013-03-21 02:30:00,32.8,23.4,29.79,WNW,290,0.0,0.0,68,0.00,,SCT036,0.00,VWS V14.01,2013-03-21 06:30:00,
2013-03-21 02:35:00,32.6,23.2,29.79,WNW,285,0.0,0.0,68,0.00,,SCT036,0.00,VWS V14.01,2013-03-21 06:35:00,
2013-03-21 02:40:00,32.3,23.3,29.79,WNW,286,0.0,0.0,69,0.00,,SCT036,0.00,VWS V14.01,2013-03-21 06:40:00,
2013-03-21 02:45:00,32.0,23.7,29.80,WNW,286,0.0,0.0,71,0.00,,SCT036,0.00,VWS V14.01,2013-03-21 06:45:00,
2013-03-21 02:50:00,31.9,23.6,29.79,WNW,286,0.0,0.0,71,0.00,,SCT036,0.00,VWS V14.01,2013-03-21 06:50:00,
2013-03-21 02:55:00,31.7,23.4,29.79,WNW,286,0.0,0.0,71,0.00,,SCT036,0.00,VWS V14.01,2013-03-21 06:55:00,
2013-03-21 03:00:00,31.7,23.4,29.79,WNW,286,0.0,0.0,71,0.00,,SCT036,0.00,VWS V14.01,2013-03-21 07:00:00,
2013-03-21 03:05:00,31.7,23.4,29.79,WNW,286,0.0,0.0,71,0.00,,BKN080,0.00,VWS V14.01,2013-03-21 07:05:00,
2013-03-21 03:10:00,31.8,24.1,29.79,WNW,286,0.0,0.0,73,0.00,,BKN080,0.00,VWS V14.01,2013-03-21 07:10:00,
2013-03-21 03:15:00,31.6,24.6,29.79,WNW,286,0.0,0.0,75,0.00,,BKN080,0.00,VWS V14.01,2013-03-21 07:15:00,
2013-03-21 03:20:00,31.5,24.2,29.78,WNW,288,0.0,1.4,74,0.00,,BKN080,0.00,VWS V14.01,2013-03-21 07:20:00,
2013-03-21 03:25:00,31.5,23.9,29.79,WNW,297,0.0,1.4,73,0.00,,BKN080,0.00,VWS V14.01,2013-03-21 07:25:00,
2013-03-21 03:30:00,31.6,23.6,29.78,NW,308,1.4,1.4,72,0.00,,BKN080,0.00,VWS V14.01,2013-03-21 07:30:00,
2013-03-21 03:35:00,31.5,23.2,29.78,West,275,0.0,0.0,71,0.00,,BKN080,0.00,VWS V14.01,2013-03-21 07:35:00,
2013-03-21 03:40:00,31.5,23.5,29.78,North,351,0.0,1.4,72,0.00,,BKN080,0.00,VWS V14.01,2013-03-21 07:40:00,
2013-03-21 03:45:00,31.4,23.4,29.78,NNW,330,0.0,0.0,72,0.00,,BKN080,0.00,VWS V14.01,2013-03-21 07:45:00,
2013-03-21 03:50:00,31.3,23.3,29.78,NNW,330,0.0,1.4,72,0.00,,BKN080,0.00,VWS V14.01,2013-03-21 07:50:00,
2013-03-21 03:55:00,31.2,23.6,29.77,NNW,334,1.4,2.8,73,0.00,,BKN080,0.00,VWS V14.01,2013-03-21 07:55:00,
2013-03-21 04:00:00,31.2,23.6,29.77,NNW,334,0.0,0.0,73,0.00,,BKN080,0.00,VWS V14.01,2013-03-21 08:00:00,
2013-03-21 04:05:00,31.2,23.6,29.77,NNW,334,0.0,0.0,73,0.00,,BKN070,0.00,VWS V14.01,2013-03-21 08:05:00,
2013-03-21 04:10:00,31.1,23.8,29.77,NNW,334,0.0,0.0,74,0.00,,BKN070,0.00,VWS V14.01,2013-03-21 08:10:00,
2013-03-21 04:15:00,31.0,24.0,29.77,NNW,334,0.0,0.0,75,0.00,,BKN070,0.00,VWS V14.01,2013-03-21 08:15:00,
2013-03-21 04:20:00,31.1,24.1,29.77,NNW,334,0.0,0.0,75,0.00,,BKN070,0.00,VWS V14.01,2013-03-21 08:20:00,
2013-03-21 04:25:00,31.0,24.3,29.77,NNW,335,0.0,2.8,76,0.00,,BKN070,0.00,VWS V14.01,2013-03-21 08:25:00,
2013-03-21 04:30:00,31.0,24.3,29.77,NNW,335,0.0,0.0,76,0.00,,BKN070,0.00,VWS V14.01,2013-03-21 08:30:00,
2013-03-21 04:35:00,31.0,24.3,29.77,NNW,335,0.0,0.0,76,0.00,,BKN070,0.00,VWS V14.01,2013-03-21 08:35:00,
2013-03-21 04:40:00,30.9,24.2,29.76,NNW,335,0.0,0.0,76,0.00,,BKN070,0.00,VWS V14.01,2013-03-21 08:40:00,
2013-03-21 04:45:00,30.9,24.9,29.76,NNW,335,0.0,1.4,78,0.00,,BKN070,0.00,VWS V14.01,2013-03-21 08:45:00,
2013-03-21 04:50:00,30.9,24.5,29.76,NNW,339,0.0,0.0,77,0.00,,BKN070,0.00,VWS V14.01,2013-03-21 08:50:00,
2013-03-21 04:55:00,30.9,24.9,29.77,NNW,339,0.0,0.0,78,0.00,,BKN070,0.00,VWS V14.01,2013-03-21 08:55:00,
2013-03-21 05:00:00,30.9,24.9,29.76,NNW,345,0.0,2.8,78,0.00,,BKN070,0.00,VWS V14.01,2013-03-21 09:00:00,
2013-03-21 05:05:00,30.7,24.7,29.76,NNW,346,0.0,1.4,78,0.00,,BKN037,0.00,VWS V14.01,2013-03-21 09:05:00,
2013-03-21 05:10:00,30.7,24.7,29.76,North,349,0.0,0.0,78,0.00,,BKN037,0.00,VWS V14.01,2013-03-21 09:10:00,
2013-03-21 05:15:00,30.8,24.8,29.76,North,349,0.0,0.0,78,0.00,,BKN037,0.00,VWS V14.01,2013-03-21 09:15:00,
2013-03-21 05:20:00,30.7,25.0,29.76,North,349,0.0,0.0,79,0.00,,BKN037,0.00,VWS V14.01,2013-03-21 09:20:00,
2013-03-21 05:25:00,30.6,24.9,29.76,North,349,0.0,1.4,79,0.00,,BKN037,0.00,VWS V14.01,2013-03-21 09:25:00,
2013-03-21 05:30:00,30.6,24.9,29.76,North,349,0.0,0.0,79,0.00,,BKN037,0.00,VWS V14.01,2013-03-21 09:30:00,
2013-03-21 05:35:00,30.6,25.2,29.76,North,349,0.0,0.0,80,0.00,,BKN037,0.00,VWS V14.01,2013-03-21 09:35:00,
2013-03-21 05:40:00,30.6,25.2,29.77,North,349,0.0,0.0,80,0.00,,BKN037,0.00,VWS V14.01,2013-03-21 09:40:00,
2013-03-21 05:45:00,30.6,24.9,29.77,North,349,0.0,0.0,79,0.00,,BKN037,0.00,VWS V14.01,2013-03-21 09:45:00,
2013-03-21 05:50:00,30.6,25.2,29.77,North,349,0.0,0.0,80,0.00,,BKN037,0.00,VWS V14.01,2013-03-21 09:50:00,
2013-03-21 05:55:00,30.6,25.5,29.77,North,349,0.0,0.0,81,0.00,,BKN037,0.00,VWS V14.01,2013-03-21 09:55:00,
2013-03-21 06:00:00,30.5,25.1,29.77,NNE,14,0.0,1.4,80,0.00,,BKN037,0.00,VWS V14.01,2013-03-21 10:00:00,
2013-03-21 06:05:00,30.5,25.1,29.77,NE,46,0.0,0.0,80,0.00,,BKN046,0.00,VWS V14.01,2013-03-21 10:05:00,
2013-03-21 06:10:00,30.4,25.3,29.77,NE,46,0.0,1.4,81,0.00,,BKN046,0.00,VWS V14.01,2013-03-21 10:10:00,
2013-03-21 06:15:00,30.3,25.2,29.77,NE,43,0.0,1.4,81,0.00,,BKN046,0.00,VWS V14.01,2013-03-21 10:15:00,
2013-03-21 06:20:00,30.2,25.1,29.77,North,8,0.0,5.7,81,0.00,,BKN046,0.00,VWS V14.01,2013-03-21 10:20:00,
2013-03-21 06:25:00,30.1,25.0,29.76,NNE,33,1.4,1.4,81,0.00,,BKN046,0.00,VWS V14.01,2013-03-21 10:25:00,
2013-03-21 06:30:00,30.0,24.6,29.77,NE,52,5.7,8.5,80,0.00,,BKN046,0.00,VWS V14.01,2013-03-21 10:30:00,
2013-03-21 06:35:00,29.9,24.2,29.76,NE,41,0.0,0.0,79,0.00,,BKN046,0.00,VWS V14.01,2013-03-21 10:35:00,
2013-03-21 06:40:00,29.9,24.2,29.76,North,358,0.0,2.8,79,0.00,,BKN046,0.00,VWS V14.01,2013-03-21 10:40:00,
2013-03-21 06:45:00,29.7,24.0,29.76,NE,52,0.0,0.0,79,0.00,,BKN046,0.00,VWS V14.01,2013-03-21 10:45:00,
2013-03-21 06:50:00,29.7,24.0,29.77,NNE,32,0.0,0.0,79,0.00,,BKN046,0.00,VWS V14.01,2013-03-21 10:50:00,
2013-03-21 06:55:00,29.7,24.0,29.76,North,357,1.4,4.3,79,0.00,,BKN046,0.00,VWS V14.01,2013-03-21 10:55:00,
2013-03-21 07:00:00,29.5,23.5,29.77,North,359,0.0,0.0,78,0.00,,BKN046,0.00,VWS V14.01,2013-03-21 11:00:00,
2013-03-21 07:05:00,29.5,23.5,29.76,North,2,0.0,4.3,78,0.00,,FEW046,0.00,VWS V14.01,2013-03-21 11:05:00,
2013-03-21 07:10:00,29.6,23.6,29.77,North,359,0.0,1.4,78,0.00,,FEW046,0.00,VWS V14.01,2013-03-21 11:10:00,
2013-03-21 07:15:00,29.6,23.6,29.77,North,354,2.8,2.8,78,0.00,,FEW046,0.00,VWS V14.01,2013-03-21 11:15:00,
2013-03-21 07:20:00,29.4,23.1,29.77,NNE,14,0.0,12.8,77,0.00,,FEW046,0.00,VWS V14.01,2013-03-21 11:20:00,
2013-03-21 07:25:00,29.4,22.8,29.77,North,357,0.0,1.4,76,0.00,,FEW046,0.00,VWS V14.01,2013-03-21 11:25:00,
2013-03-21 07:30:00,29.3,22.7,29.77,NNE,14,0.0,1.4,76,0.00,,FEW046,0.00,VWS V14.01,2013-03-21 11:30:00,
2013-03-21 07:35:00,29.3,22.7,29.77,NNE,18,9.9,9.9,76,0.00,,FEW046,0.00,VWS V14.01,2013-03-21 11:35:00,
2013-03-21 07:40:00,29.1,22.8,29.77,North,359,1.4,2.8,77,0.00,,FEW046,0.00,VWS V14.01,2013-03-21 11:40:00,
2013-03-21 07:45:00,28.9,22.9,29.77,North,352,0.0,9.9,78,0.00,,FEW046,0.00,VWS V14.01,2013-03-21 11:45:00,
2013-03-21 07:50:00,28.8,22.8,29.77,NNE,28,5.7,7.1,78,0.00,,FEW046,0.00,VWS V14.01,2013-03-21 11:50:00,
2013-03-21 07:55:00,28.8,23.1,29.77,North,2,0.0,2.8,79,0.00,,FEW046,0.00,VWS V14.01,2013-03-21 11:55:00,
2013-03-21 08:00:00,29.0,23.3,29.77,NNE,24,5.7,7.1,79,0.00,,FEW046,0.00,VWS V14.01,2013-03-21 12:00:00,
2013-03-21 08:05:00,29.0,23.3,29.77,North,11,1.4,7.1,79,0.00,,SCT070,0.00,VWS V14.01,2013-03-21 12:05:00,
2013-03-21 08:10:00,28.9,23.5,29.76,NNW,337,1.4,1.4,80,0.00,,SCT070,0.00,VWS V14.01,2013-03-21 12:10:00,
2013-03-21 08:15:00,28.7,23.3,29.76,NNW,329,1.4,2.8,80,0.00,,SCT070,0.00,VWS V14.01,2013-03-21 12:15:00,
2013-03-21 08:20:00,28.4,23.3,29.76,NE,52,0.0,5.7,81,0.00,,SCT070,0.00,VWS V14.01,2013-03-21 12:20:00,
2013-03-21 08:25:00,28.3,23.2,29.76,NNE,25,2.8,8.5,81,0.00,,SCT070,0.00,VWS V14.01,2013-03-21 12:25:00,
2013-03-21 08:30:00,28.1,23.0,29.76,NE,44,4.3,11.4,81,0.00,,SCT070,0.00,VWS V14.01,2013-03-21 12:30:00,
2013-03-21 08:35:00,28.3,23.2,29.77,NE,42,0.0,1.4,81,0.00,,SCT070,0.00,VWS V14.01,2013-03-21 12:35:00,
2013-03-21 08:40:00,28.4,23.0,29.76,NE,35,1.4,2.8,80,0.00,,SCT070,0.00,VWS V14.01,2013-03-21 12:40:00,
2013-03-21 08:45:00,28.4,22.7,29.76,NNW,337,9.9,9.9,79,0.00,,SCT070,0.00,VWS V14.01,2013-03-21 12:45:00,
2013-03-21 08:50:00,28.7,23.3,29.76,North,350,0.0,2.8,80,0.00,,SCT070,0.00,VWS V14.01,2013-03-21 12:50:00,
2013-03-21 08:55:00,28.6,22.9,29.76,North,359,0.0,4.3,79,0.00,,SCT070,0.00,VWS V14.01,2013-03-21 12:55:00,
2013-03-21 09:00:00,28.3,22.9,29.76,ENE,68,0.0,7.1,80,0.00,,SCT070,0.00,VWS V14.01,2013-03-21 13:00:00,
2013-03-21 09:05:00,28.4,23.3,29.76,NNE,20,0.0,0.0,81,0.00,,BKN050,0.00,VWS V14.01,2013-03-21 13:05:00,
2013-03-21 09:10:00,28.7,23.6,29.76,NNW,343,1.4,14.2,81,0.00,,BKN050,0.00,VWS V14.01,2013-03-21 13:10:00,
2013-03-21 09:15:00,28.7,23.3,29.76,North,6,0.0,0.0,80,0.00,,BKN050,0.00,VWS V14.01,2013-03-21 13:15:00,
2013-03-21 09:20:00,28.7,23.9,29.76,NE,44,0.0,0.0,82,0.00,,BKN050,0.00,VWS V14.01,2013-03-21 13:20:00,
2013-03-21 09:25:00,28.7,24.2,29.76,NNE,30,0.0,1.4,83,0.00,,BKN050,0.00,VWS V14.01,2013-03-21 13:25:00,
2013-03-21 09:30:00,28.7,23.6,29.76,NE,35,1.4,2.8,81,0.00,,BKN050,0.00,VWS V14.01,2013-03-21 13:30:00,
2013-03-21 09:35:00,28.7,23.6,29.76,North,10,2.8,4.3,81,0.00,,BKN050,0.00,VWS V14.01,2013-03-21 13:35:00,
2013-03-21 09:40:00,28.6,23.2,29.75,NW,326,0.0,5.7,80,0.00,,BKN050,0.00,VWS V14.01,2013-03-21 13:40:00,
2013-03-21 09:45:00,29.0,23.9,29.75,ENE,59,1.4,5.7,81,0.00,,BKN050,0.00,VWS V14.01,2013-03-21 13:45:00,
2013-03-21 09:50:00,28.8,22.8,29.74,NNW,341,2.8,4.3,78,0.00,,BKN050,0.00,VWS V14.01,2013-03-21 13:50:00,
2013-03-21 09:55:00,29.1,23.4,29.74,NW,319,1.4,8.5,79,0.00,,BKN050,0.00,VWS V14.01,2013-03-21 13:55:00,
2013-03-21 10:00:00,29.1,22.8,29.74,North,358,2.8,8.5,77,0.00,,BKN050,0.00,VWS V14.01,2013-03-21 14:00:00,
2013-03-21 10:05:00,28.9,22.9,29.75,NE,34,1.4,9.9,78,0.00,,SCT050,0.00,VWS V14.01,2013-03-21 14:05:00,
2013-03-21 10:10:00,29.3,23.3,29.74,NNE,23,0.0,1.4,78,0.00,,SCT050,0.00,VWS V14.01,2013-03-21 14:10:00,
2013-03-21 10:15:00,29.4,23.4,29.75,North,11,0.0,4.3,78,0.00,,SCT050,0.00,VWS V14.01,2013-03-21 14:15:00,
2013-03-21 10:20:00,29.2,23.2,29.74,NNE,33,0.0,2.8,78,0.00,,SCT050,0.00,VWS V14.01,2013-03-21 14:20:00,
2013-03-21 10:25:00,29.7,23.7,29.74,NNE,25,5.7,7.1,78,0.00,,SCT050,0.00,VWS V14.01,2013-03-21 14:25:00,
2013-03-21 10:30:00,29.5,22.9,29.74,North,4,2.8,2.8,76,0.00,,SCT050,0.00,VWS V14.01,2013-03-21 14:30:00,
2013-03-21 10:35:00,29.2,22.6,29.74,NNE,21,0.0,4.3,76,0.00,,SCT050,0.00,VWS V14.01,2013-03-21 14:35:00,
2013-03-21 10:40:00,29.4,23.1,29.74,NE,34,2.8,2.8,77,0.00,,SCT050,0.00,VWS V14.01,2013-03-21 14:40:00,
2013-03-21 10:45:00,29.3,23.0,29.74,North,355,1.4,2.8,77,0.00,,SCT050,0.00,VWS V14.01,2013-03-21 14:45:00,
2013-03-21 10:50:00,28.7,22.7,29.74,NE,37,5.7,7.1,78,0.00,,SCT050,0.00,VWS V14.01,2013-03-21 14:50:00,
2013-03-21 10:55:00,28.2,22.8,29.74,NNE,17,0.0,1.4,80,0.00,,SCT050,0.00,VWS V14.01,2013-03-21 14:55:00,
2013-03-21 11:00:00,28.4,23.6,29.74,ENE,67,4.3,8.5,82,0.00,,SCT050,0.00,VWS V14.01,2013-03-21 15:00:00,
2013-03-21 11:05:00,28.2,24.0,29.73,NNE,16,0.0,1.4,84,0.00,,SCT070,0.00,VWS V14.01,2013-03-21 15:05:00,
2013-03-21 11:10:00,28.5,24.3,29.73,ENE,61,1.4,1.4,84,0.00,,SCT070,0.00,VWS V14.01,2013-03-21 15:10:00,
2013-03-21 11:15:00,28.8,24.9,29.74,NE,46,1.4,1.4,85,0.00,,SCT070,0.00,VWS V14.01,2013-03-21 15:15:00,
2013-03-21 11:20:00,29.1,25.4,29.73,NE,40,0.0,1.4,86,0.00,,SCT070,0.00,VWS V14.01,2013-03-21 15:20:00,
2013-03-21 11:25:00,29.1,25.4,29.73,NNE,17,0.0,2.8,86,0.00,,SCT070,0.00,VWS V14.01,2013-03-21 15:25:00,
2013-03-21 11:30:00,29.1,25.4,29.73,North,352,4.3,7.1,86,0.00,,SCT070,0.00,VWS V14.01,2013-03-21 15:30:00,
2013-03-21 11:35:00,29.0,24.8,29.73,East,82,0.0,0.0,84,0.00,,SCT070,0.00,VWS V14.01,2013-03-21 15:35:00,
2013-03-21 11:40:00,29.4,25.5,29.72,NE,38,0.0,1.4,85,0.00,,SCT070,0.00,VWS V14.01,2013-03-21 15:40:00,
2013-03-21 11:45:00,29.7,25.5,29.72,NE,35,0.0,5.7,84,0.00,,SCT070,0.00,VWS V14.01,2013-03-21 15:45:00,
2013-03-21 11:50:00,30.0,25.2,29.72,NNE,12,0.0,7.1,82,0.00,,SCT070,0.00,VWS V14.01,2013-03-21 15:50:00,
2013-03-21 11:55:00,30.3,25.2,29.71,North,353,5.7,5.7,81,0.00,,SCT070,0.00,VWS V14.01,2013-03-21 15:55:00,
2013-03-21 12:00:00,30.7,25.6,29.71,NE,46,0.0,8.5,81,0.00,,SCT070,0.00,VWS V14.01,2013-03-21 16:00:00,
2013-03-21 12:05:00,30.6,25.2,29.71,NW,304,0.0,1.4,80,0.00,,SCT044,0.00,VWS V14.01,2013-03-21 16:05:00,
2013-03-21 12:10:00,31.0,25.3,29.70,WSW,237,1.4,2.8,79,0.00,,SCT044,0.00,VWS V14.01,2013-03-21 16:10:00,
2013-03-21 12:15:00,31.7,25.3,29.70,NNW,346,0.0,4.3,77,0.00,,SCT044,0.00,VWS V14.01,2013-03-21 16:15:00,
2013-03-21 12:20:00,32.4,25.7,29.70,SE,140,8.5,8.5,76,0.00,,SCT044,0.00,VWS V14.01,2013-03-21 16:20:00,
2013-03-21 12:25:00,31.9,24.2,29.70,NNE,22,0.0,4.3,73,0.00,,SCT044,0.00,VWS V14.01,2013-03-21 16:25:00,
2013-03-21 12:30:00,31.3,23.7,29.69,North,352,0.0,4.3,73,0.00,,SCT044,0.00,VWS V14.01,2013-03-21 16:30:00,
2013-03-21 12:35:00,31.2,23.6,29.69,NNE,19,4.3,4.3,73,0.00,,SCT044,0.00,VWS V14.01,2013-03-21 16:35:00,
2013-03-21 12:40:00,31.5,24.2,29.69,NW,308,5.7,5.7,74,0.00,,SCT044,0.00,VWS V14.01,2013-03-21 16:40:00,
2013-03-21 12:45:00,32.0,24.3,29.68,WSW,254,5.7,14.2,73,0.00,,SCT044,0.00,VWS V14.01,2013-03-21 16:45:00,
2013-03-21 12:50:00,32.7,25.0,29.68,NNE,28,1.4,7.1,73,0.00,,SCT044,0.00,VWS V14.01,2013-03-21 16:50:00,
2013-03-21 12:55:00,33.1,24.4,29.68,NNE,18,1.4,9.9,70,0.00,,SCT044,0.00,VWS V14.01,2013-03-21 16:55:00,
2013-03-21 13:00:00,33.1,24.7,29.68,NNE,31,0.0,17.0,71,0.00,,SCT044,0.00,VWS V14.01,2013-03-21 17:00:00,
2013-03-21 13:05:00,33.4,24.0,29.67,NNE,14,1.4,7.1,68,0.00,,SCT085,0.00,VWS V14.01,2013-03-21 17:05:00,
2013-03-21 13:10:00,33.8,23.7,29.67,NNE,23,0.0,1.4,66,0.00,,SCT085,0.00,VWS V14.01,2013-03-21 17:10:00,
2013-03-21 13:15:00,34.2,23.7,29.67,North,10,4.3,9.9,65,0.00,,SCT085,0.00,VWS V14.01,2013-03-21 17:15:00,
2013-03-21 13:20:00,34.2,23.7,29.66,SW,227,0.0,4.3,65,0.00,,SCT085,0.00,VWS V14.01,2013-03-21 17:20:00,
2013-03-21 13:25:00,34.8,24.6,29.66,SSW,199,2.8,9.9,66,0.00,,SCT085,0.00,VWS V14.01,2013-03-21 17:25:00,
2013-03-21 13:30:00,34.2,24.4,29.66,SSW,209,0.0,11.4,67,0.00,,SCT085,0.00,VWS V14.01,2013-03-21 17:30:00,
2013-03-21 13:35:00,33.8,24.4,29.66,NNE,24,1.4,4.3,68,0.00,,SCT085,0.00,VWS V14.01,2013-03-21 17:35:00,
2013-03-21 13:40:00,34.2,25.1,29.66,SSW,210,4.3,7.1,69,0.00,,SCT085,0.00,VWS V14.01,2013-03-21 17:40:00,
2013-03-21 13:45:00,34.1,24.7,29.66,North,2,0.0,8.5,68,0.00,,SCT085,0.00,VWS V14.01,2013-03-21 17:45:00,
2013-03-21 13:50:00,33.2,24.1,29.65,NE,51,8.5,11.4,69,0.00,,SCT085,0.00,VWS V14.01,2013-03-21 17:50:00,
2013-03-21 13:55:00,32.6,23.6,29.65,North,3,0.0,2.8,69,0.00,,SCT085,0.00,VWS V14.01,2013-03-21 17:55:00,
2013-03-21 14:00:00,32.5,23.5,29.65,SW,215,0.0,0.0,69,0.00,,SCT085,0.00,VWS V14.01,2013-03-21 18:00:00,
2013-03-21 14:05:00,32.9,24.2,29.65,SW,218,0.0,2.8,70,0.00,,OVC041,0.00,VWS V14.01,2013-03-21 18:05:00,
2013-03-21 14:10:00,32.9,23.9,29.65,NNE,14,0.0,0.0,69,0.00,,OVC041,0.00,VWS V14.01,2013-03-21 18:10:00,
2013-03-21 14:15:00,32.4,24.4,29.64,SW,214,8.5,11.4,72,0.00,,OVC041,0.00,VWS V14.01,2013-03-21 18:15:00,
2013-03-21 14:20:00,31.7,25.0,29.65,SW,216,0.0,9.9,76,0.00,,OVC041,0.00,VWS V14.01,2013-03-21 18:20:00,
2013-03-21 14:25:00,31.1,24.4,29.65,NNE,25,0.0,2.8,76,0.00,,OVC041,0.00,VWS V14.01,2013-03-21 18:25:00,
2013-03-21 14:30:00,30.9,24.9,29.64,SSW,211,1.4,2.8,78,0.00,,OVC041,0.00,VWS V14.01,2013-03-21 18:30:00,
2013-03-21 14:35:00,30.9,25.2,29.64,SSW,193,0.0,0.0,79,0.00,,OVC041,0.00,VWS V14.01,2013-03-21 18:35:00,
2013-03-21 14:40:00,31.1,25.4,29.64,SW,230,2.8,4.3,79,0.00,,OVC041,0.00,VWS V14.01,2013-03-21 18:40:00,
2013-03-21 14:45:00,31.0,25.3,29.64,SW,236,1.4,4.3,79,0.00,,OVC041,0.00,VWS V14.01,2013-03-21 18:45:00,
2013-03-21 14:50:00,30.8,25.1,29.64,North,10,2.8,7.1,79,0.00,,OVC041,0.00,VWS V14.01,2013-03-21 18:50:00,
2013-03-21 14:55:00,30.2,25.1,29.64,WSW,243,0.0,8.5,81,0.00,,OVC041,0.00,VWS V14.01,2013-03-21 18:55:00,
2013-03-21 15:00:00,29.7,25.5,29.64,North,10,0.0,0.0,84,0.00,,OVC041,0.00,VWS V14.01,2013-03-21 19:00:00,
2013-03-21 15:05:00,29.6,25.6,29.64,NNE,18,1.4,2.8,85,0.00,,OVC041,0.00,VWS V14.01,2013-03-21 19:05:00,
2013-03-21 15:10:00,29.5,25.8,29.64,SW,230,2.8,4.3,86,0.00,,BKN039,0.00,VWS V14.01,2013-03-21 19:10:00,
2013-03-21 15:15:00,29.5,25.8,29.63,North,7,5.7,7.1,86,0.00,,BKN039,0.00,VWS V14.01,2013-03-21 19:15:00,
2013-03-21 15:20:00,29.5,25.8,29.63,WSW,249,0.0,0.0,86,0.00,,BKN039,0.00,VWS V14.01,2013-03-21 19:20:00,
2013-03-21 15:25:00,29.7,26.6,29.63,WSW,250,0.0,1.4,88,0.00,,BKN039,0.00,VWS V14.01,2013-03-21 19:25:00,
2013-03-21 15:30:00,29.7,26.6,29.64,West,259,0.0,4.3,88,0.00,,BKN039,0.00,VWS V14.01,2013-03-21 19:30:00,
2013-03-21 15:35:00,29.2,26.6,29.63,NE,52,4.3,11.4,90,0.00,,BKN039,0.00,VWS V14.01,2013-03-21 19:35:00,
2013-03-21 15:40:00,29.1,26.8,29.63,West,260,0.0,4.3,91,0.00,,BKN039,0.00,VWS V14.01,2013-03-21 19:40:00,
2013-03-21 15:45:00,29.0,27.0,29.63,West,262,1.4,2.8,92,0.00,,BKN039,0.00,VWS V14.01,2013-03-21 19:45:00,
2013-03-21 15:50:00,29.0,27.0,29.63,NW,315,0.0,4.3,92,0.00,,BKN039,0.00,VWS V14.01,2013-03-21 19:50:00,
2013-03-21 15:55:00,29.0,27.5,29.63,North,4,0.0,8.5,94,0.00,,BKN039,0.00,VWS V14.01,2013-03-21 19:55:00,
2013-03-21 16:00:00,28.9,27.4,29.63,WSW,253,5.7,5.7,94,0.00,,BKN039,0.00,VWS V14.01,2013-03-21 20:00:00,
2013-03-21 16:05:00,29.0,27.2,29.62,SW,232,0.0,4.3,93,0.00,,OVC039,0.00,VWS V14.01,2013-03-21 20:05:00,
2013-03-21 16:10:00,29.2,27.7,29.62,WSW,258,0.0,4.3,94,0.00,,OVC039,0.00,VWS V14.01,2013-03-21 20:10:00,
2013-03-21 16:15:00,29.2,27.4,29.63,NNE,25,9.9,11.4,93,0.00,,OVC039,0.00,VWS V14.01,2013-03-21 20:15:00,
2013-03-21 16:20:00,29.1,27.1,29.62,NNE,23,1.4,2.8,92,0.00,,OVC039,0.00,VWS V14.01,2013-03-21 20:20:00,
2013-03-21 16:25:00,29.2,27.2,29.62,South,186,0.0,7.1,92,0.00,,OVC039,0.00,VWS V14.01,2013-03-21 20:25:00,
2013-03-21 16:30:00,29.4,27.1,29.62,NW,321,5.7,14.2,91,0.00,,OVC039,0.00,VWS V14.01,2013-03-21 20:30:00,
2013-03-21 16:35:00,29.4,27.4,29.62,NNW,341,1.4,1.4,92,0.00,,OVC039,0.00,VWS V14.01,2013-03-21 20:35:00,
2013-03-21 16:40:00,29.5,26.9,29.63,North,6,9.9,9.9,90,0.00,,OVC039,0.00,VWS V14.01,2013-03-21 20:40:00,
2013-03-21 16:45:00,29.4,26.6,29.62,North,8,0.0,8.5,89,0.00,,OVC039,0.00,VWS V14.01,2013-03-21 20:45:00,
2013-03-21 16:50:00,29.2,26.1,29.62,NNE,12,0.0,9.9,88,0.00,,OVC039,0.00,VWS V14.01,2013-03-21 20:50:00,
2013-03-21 16:55:00,29.4,26.3,29.62,NNW,342,0.0,2.8,88,0.00,,OVC039,0.00,VWS V14.01,2013-03-21 20:55:00,
2013-03-21 17:00:00,29.4,26.6,29.62,North,357,5.7,5.7,89,0.00,,OVC039,0.00,VWS V14.01,2013-03-21 21:00:00,
2013-03-21 17:05:00,29.4,26.6,29.62,NW,322,2.8,7.1,89,0.00,,SCT043,0.00,VWS V14.01,2013-03-21 21:05:00,
2013-03-21 17:10:00,29.4,26.8,29.62,WSW,252,0.0,4.3,90,0.00,,SCT043,0.00,VWS V14.01,2013-03-21 21:10:00,
2013-03-21 17:15:00,29.4,26.8,29.62,NNW,331,1.4,11.4,90,0.00,,SCT043,0.00,VWS V14.01,2013-03-21 21:15:00,
2013-03-21 17:20:00,29.2,26.6,29.62,NW,315,0.0,2.8,90,0.00,,SCT043,0.00,VWS V14.01,2013-03-21 21:20:00,
2013-03-21 17:25:00,29.3,27.0,29.62,North,6,4.3,4.3,91,0.00,,SCT043,0.00,VWS V14.01,2013-03-21 21:25:00,
2013-03-21 17:30:00,29.2,26.9,29.62,North,349,1.4,1.4,91,0.00,,SCT043,0.00,VWS V14.01,2013-03-21 21:30:00,
2013-03-21 17:35:00,29.2,26.9,29.62,North,351,0.0,0.0,91,0.00,,SCT043,0.00,VWS V14.01,2013-03-21 21:35:00,
2013-03-21 17:40:00,29.2,26.6,29.62,North,357,2.8,4.3,90,0.00,,SCT043,0.00,VWS V14.01,2013-03-21 21:40:00,
2013-03-21 17:45:00,29.1,26.5,29.62,NW,323,0.0,0.0,90,0.00,,SCT043,0.00,VWS V14.01,2013-03-21 21:45:00,
2013-03-21 17:50:00,29.0,26.4,29.62,NE,39,1.4,7.1,90,0.00,,SCT043,0.00,VWS V14.01,2013-03-21 21:50:00,
2013-03-21 17:55:00,29.1,26.5,29.62,North,357,0.0,0.0,90,0.00,,SCT043,0.00,VWS V14.01,2013-03-21 21:55:00,
2013-03-21 18:00:00,29.2,26.9,29.62,North,357,0.0,1.4,91,0.00,,SCT043,0.00,VWS V14.01,2013-03-21 22:00:00,
2013-03-21 18:05:00,29.1,26.5,29.62,North,357,0.0,0.0,90,0.00,,OVC048,0.00,VWS V14.01,2013-03-21 22:05:00,
2013-03-21 18:10:00,29.2,26.9,29.62,North,356,0.0,0.0,91,0.00,,OVC048,0.00,VWS V14.01,2013-03-21 22:10:00,
2013-03-21 18:15:00,29.3,26.7,29.62,North,352,2.8,7.1,90,0.00,,OVC048,0.00,VWS V14.01,2013-03-21 22:15:00,
2013-03-21 18:20:00,29.2,26.6,29.62,NNW,338,1.4,1.4,90,0.00,,OVC048,0.00,VWS V14.01,2013-03-21 22:20:00,
2013-03-21 18:25:00,29.3,26.7,29.63,NW,322,0.0,0.0,90,0.00,,OVC048,0.00,VWS V14.01,2013-03-21 22:25:00,
2013-03-21 18:30:00,29.2,26.9,29.63,WNW,297,1.4,4.3,91,0.00,,OVC048,0.00,VWS V14.01,2013-03-21 22:30:00,
2013-03-21 18:35:00,29.2,26.9,29.63,NNW,346,0.0,0.0,91,0.00,,OVC048,0.00,VWS V14.01,2013-03-21 22:35:00,
2013-03-21 18:40:00,29.1,26.8,29.63,NW,307,0.0,5.7,91,0.00,,OVC048,0.00,VWS V14.01,2013-03-21 22:40:00,
2013-03-21 18:45:00,29.1,26.8,29.63,NW,306,0.0,0.0,91,0.00,,OVC048,0.00,VWS V14.01,2013-03-21 22:45:00,
2013-03-21 18:50:00,29.1,27.1,29.63,NNW,334,0.0,1.4,92,0.00,,OVC048,0.00,VWS V14.01,2013-03-21 22:50:00,
2013-03-21 18:55:00,28.9,27.1,29.63,NW,315,0.0,1.4,93,0.00,,OVC048,0.00,VWS V14.01,2013-03-21 22:55:00,
2013-03-21 19:00:00,28.8,27.0,29.63,NW,316,0.0,0.0,93,0.00,,OVC048,0.00,VWS V14.01,2013-03-21 23:00:00,
2013-03-21 19:05:00,28.6,27.1,29.63,NW,316,0.0,0.0,94,0.00,,OVC048,0.00,VWS V14.01,2013-03-21 23:05:00,
2013-03-21 19:10:00,28.5,27.2,29.63,SSW,201,0.0,0.0,95,0.00,,OVC048,0.00,VWS V14.01,2013-03-21 23:10:00,
2013-03-21 19:15:00,28.5,27.2,29.63,SSW,201,0.0,0.0,95,0.00,,OVC048,0.00,VWS V14.01,2013-03-21 23:15:00,
2013-03-21 19:20:00,28.4,27.1,29.63,SSW,201,0.0,0.0,95,0.00,,OVC048,0.00,VWS V14.01,2013-03-21 23:20:00,
2013-03-21 19:25:00,28.4,27.7,29.63,ENE,71,0.0,0.0,97,0.00,,OVC048,0.00,VWS V14.01,2013-03-21 23:25:00,
2013-03-21 19:30:00,28.4,27.4,29.63,ENE,71,0.0,1.4,96,0.00,,OVC048,0.00,VWS V14.01,2013-03-21 23:30:00,
2013-03-21 19:35:00,28.2,27.5,29.62,ENE,70,0.0,0.0,97,0.00,,OVC048,0.00,VWS V14.01,2013-03-21 23:35:00,
2013-03-21 19:40:00,28.2,27.5,29.63,ENE,70,0.0,0.0,97,0.00,,OVC048,0.00,VWS V14.01,2013-03-21 23:40:00,
2013-03-21 19:45:00,28.2,27.7,29.63,ENE,70,0.0,0.0,98,0.00,,OVC048,0.00,VWS V14.01,2013-03-21 23:45:00,
2013-03-21 19:50:00,28.2,27.5,29.62,NE,36,0.0,0.0,97,0.00,,OVC048,0.00,VWS V14.01,2013-03-21 23:50:00,
2013-03-21 19:55:00,28.2,27.5,29.62,NE,36,0.0,0.0,97,0.00,,OVC048,0.00,VWS V14.01,2013-03-21 23:55:00,
2013-03-21 20:00:00,28.4,27.7,29.62,NE,36,0.0,0.0,97,0.00,,OVC048,0.00,VWS V14.01,2013-03-22 00:00:00,
2013-03-21 20:05:00,28.4,27.7,29.63,NE,36,0.0,0.0,97,0.00,,OVC070,0.00,VWS V14.01,2013-03-22 00:05:00,
2013-03-21 20:10:00,28.4,27.7,29.63,NE,36,0.0,0.0,97,0.00,,OVC070,0.00,VWS V14.01,2013-03-22 00:10:00,
2013-03-21 20:15:00,28.2,27.5,29.63,NE,36,0.0,0.0,97,0.00,,OVC070,0.00,VWS V14.01,2013-03-22 00:15:00,
2013-03-21 20:20:00,28.2,27.5,29.63,NE,36,0.0,0.0,97,0.00,,OVC070,0.00,VWS V14.01,2013-03-22 00:20:00,
2013-03-21 20:25:00,28.1,27.4,29.63,NE,36,0.0,0.0,97,0.00,,OVC070,0.00,VWS V14.01,2013-03-22 00:25:00,
2013-03-21 20:30:00,28.1,27.4,29.64,NE,36,0.0,0.0,97,0.00,,OVC070,0.00,VWS V14.01,2013-03-22 00:30:00,
2013-03-21 20:35:00,28.1,27.4,29.64,NE,36,0.0,0.0,97,0.00,,OVC070,0.00,VWS V14.01,2013-03-22 00:35:00,
2013-03-21 20:40:00,28.1,27.4,29.64,NE,36,0.0,0.0,97,0.00,,OVC070,0.00,VWS V14.01,2013-03-22 00:40:00,
2013-03-21 20:45:00,28.1,27.4,29.64,NE,36,0.0,0.0,97,0.00,,OVC070,0.00,VWS V14.01,2013-03-22 00:45:00,
2013-03-21 20:50:00,28.1,27.4,29.64,NE,36,0.0,0.0,97,0.00,,OVC070,0.00,VWS V14.01,2013-03-22 00:50:00,
2013-03-21 20:55:00,28.1,27.4,29.65,NNE,32,0.0,0.0,97,0.00,,OVC070,0.00,VWS V14.01,2013-03-22 00:55:00,
2013-03-21 21:00:00,28.1,27.4,29.64,North,3,0.0,0.0,97,0.00,,OVC070,0.00,VWS V14.01,2013-03-22 01:00:00,
2013-03-21 21:05:00,28.1,27.4,29.64,WNW,292,0.0,1.4,97,0.00,,OVC070,0.00,VWS V14.01,2013-03-22 01:05:00,
2013-03-21 21:10:00,28.1,27.4,29.65,WNW,293,0.0,0.0,97,0.00,,OVC070,0.00,VWS V14.01,2013-03-22 01:10:00,
2013-03-21 21:15:00,28.1,27.4,29.65,WNW,293,0.0,0.0,97,0.00,,OVC070,0.00,VWS V14.01,2013-03-22 01:15:00,
2013-03-21 21:20:00,27.9,27.2,29.65,West,271,0.0,1.4,97,0.00,,OVC070,0.00,VWS V14.01,2013-03-22 01:20:00,
2013-03-21 21:25:00,27.9,27.4,29.65,West,271,0.0,0.0,98,0.00,,OVC070,0.00,VWS V14.01,2013-03-22 01:25:00,
2013-03-21 21:30:00,27.9,27.4,29.65,West,280,0.0,0.0,98,0.00,,OVC070,0.00,VWS V14.01,2013-03-22 01:30:00,
2013-03-21 21:35:00,27.8,27.3,29.65,West,280,0.0,0.0,98,0.00,,OVC070,0.00,VWS V14.01,2013-03-22 01:35:00,
2013-03-21 21:40:00,27.7,27.0,29.65,West,280,0.0,0.0,97,0.00,,OVC070,0.00,VWS V14.01,2013-03-22 01:40:00,
2013-03-21 21:45:00,27.5,27.0,29.65,West,280,0.0,0.0,98,0.00,,OVC070,0.00,VWS V14.01,2013-03-22 01:45:00,
2013-03-21 21:50:00,27.3,26.8,29.65,West,280,0.0,0.0,98,0.00,,OVC070,0.00,VWS V14.01,2013-03-22 01:50:00,
2013-03-21 21:55:00,27.2,26.5,29.65,West,280,0.0,0.0,97,0.00,,OVC070,0.00,VWS V14.01,2013-03-22 01:55:00,
2013-03-21 22:00:00,27.1,26.6,29.65,West,280,0.0,0.0,98,0.00,,OVC070,0.00,VWS V14.01,2013-03-22 02:00:00,
2013-03-21 22:05:00,27.1,26.6,29.65,West,280,0.0,0.0,98,0.00,,OVC070,0.00,VWS V14.01,2013-03-22 02:05:00,
2013-03-21 22:11:00,26.9,26.4,29.65,West,280,0.0,0.0,98,0.00,,OVC070,0.00,VWS V14.01,2013-03-22 02:11:00,
2013-03-21 22:16:00,26.8,26.3,29.65,West,280,0.0,0.0,98,0.00,,OVC070,0.00,VWS V14.01,2013-03-22 02:16:00,
2013-03-21 22:21:00,26.8,26.3,29.65,West,280,0.0,0.0,98,0.00,,OVC070,0.00,VWS V14.01,2013-03-22 02:21:00,
2013-03-21 22:26:00,26.6,26.4,29.65,West,280,0.0,0.0,99,0.00,,OVC070,0.00,VWS V14.01,2013-03-22 02:26:00,
2013-03-21 22:31:00,26.5,26.0,29.65,West,280,0.0,0.0,98,0.00,,OVC070,0.00,VWS V14.01,2013-03-22 02:31:00,
2013-03-21 22:36:00,26.5,26.0,29.65,West,280,0.0,0.0,98,0.00,,OVC070,0.00,VWS V14.01,2013-03-22 02:36:00,
2013-03-21 22:42:00,26.3,25.8,29.66,West,280,0.0,0.0,98,0.00,,OVC070,0.00,VWS V14.01,2013-03-22 02:42:00,
2013-03-21 22:47:00,26.3,25.8,29.66,West,280,0.0,0.0,98,0.00,,OVC070,0.00,VWS V14.01,2013-03-22 02:47:00,
2013-03-21 22:52:00,26.2,25.7,29.65,West,280,0.0,0.0,98,0.00,,OVC070,0.00,VWS V14.01,2013-03-22 02:52:00,
2013-03-21 22:57:00,26.2,25.7,29.66,NNW,348,0.0,0.0,98,0.00,,OVC070,0.00,VWS V14.01,2013-03-22 02:57:00,
2013-03-21 23:02:00,26.2,25.7,29.65,NNW,348,0.0,0.0,98,0.00,,OVC070,0.00,VWS V14.01,2013-03-22 03:02:00,
2013-03-21 23:07:00,26.5,25.5,29.66,West,281,0.0,2.8,96,0.00,,BKN070,0.00,VWS V14.01,2013-03-22 03:07:00,
2013-03-21 23:12:00,26.8,25.0,29.66,NW,312,0.0,1.4,93,0.00,,BKN070,0.00,VWS V14.01,2013-03-22 03:12:00,
2013-03-21 23:17:00,26.9,24.4,29.66,North,351,0.0,1.4,90,0.00,,BKN070,0.00,VWS V14.01,2013-03-22 03:17:00,
2013-03-21 23:22:00,26.9,23.3,29.66,NNW,327,0.0,1.4,86,0.00,,BKN070,0.00,VWS V14.01,2013-03-22 03:22:00,
2013-03-21 23:27:00,27.1,22.6,29.66,North,359,0.0,2.8,83,0.00,,BKN070,0.00,VWS V14.01,2013-03-22 03:27:00,
2013-03-21 23:32:00,27.2,21.6,29.66,North,359,0.0,1.4,79,0.00,,BKN070,0.00,VWS V14.01,2013-03-22 03:32:00,
2013-03-21 23:37:00,27.2,20.6,29.66,SW,222,2.8,2.8,76,0.00,,BKN070,0.00,VWS V14.01,2013-03-22 03:37:00,
2013-03-21 23:42:00,27.2,19.7,29.67,NW,319,1.4,4.3,73,0.00,,BKN070,0.00,VWS V14.01,2013-03-22 03:42:00,
2013-03-21 23:47:00,27.4,19.2,29.67,North,9,5.7,5.7,71,0.00,,BKN070,0.00,VWS V14.01,2013-03-22 03:47:00,
2013-03-21 23:52:00,27.4,18.9,29.67,NNW,337,0.0,1.4,70,0.00,,BKN070,0.00,VWS V14.01,2013-03-22 03:52:00,
2013-03-21 23:57:00,27.2,19.1,29.67,NNW,335,0.0,4.3,71,0.00,,BKN070,0.00,VWS V14.01,2013-03-22 03:57:00,